SCP
1 1 1 1 1 1 1 1 1 1 1 1 0 0 0 0 0 0 0 0 0 0 0 0 0 0 0 0 0 0 0 0 0 0 0 0 0 0 0 0 0 0 0
1 1 1 1 1 1 1 1 1 1 1 1 0 0 0 0 0 0 0 0 0 0 0 0 0 0 0 0 0 0 0 0 0 0 0 0 0 0 0 0 0 0 0
1 1 1 1 1 1 1 1 1 1 1 1 0 0 0 0 0 0 0 0 0 0 0 0 0 0 0 0 0 0 0 0 0 0 0 0 0 0 0 0 0 0 0
1 1 1 1 1 1 1 1 1 1 1 1 0 0 0 0 0 0 0 0 0 0 0 0 0 0 0 0 0 0 0 0 0 0 0 0 0 0 0 0 0 0 0
1 1 1 1 1 1 1 1 1 1 1 1 0 0 0 0 0 0 0 0 0 0 0 0 0 0 0 0 0 0 0 0 0 0 0 0 0 0 0 0 0 0 0
1 1 1 1 1 1 1 1 1 1 1 1 0 0 0 0 0 0 0 0 0 0 0 0 0 0 0 0 0 0 0 0 0 0 0 0 0 0 0 0 0 0 0
1 1 1 1 1 1 1 1 1 1 1 0 0 0 0 0 0 0 0 0 0 0 0 0 0 0 0 0 0 0 0 0 0 0 0 0 0 0 0 0 0 0 0
1 1 1 1 1 1 1 1 1 1 0 0 0 0 0 0 0 0 0 0 0 0 0 0 0 0 0 0 0 0 0 0 0 0 0 0 0 0 0 0 0 0 0
1 1 1 1 1 1 1 1 1 0 0 0 0 0 0 0 0 0 0 0 0 0 0 0 0 0 0 0 0 0 0 0 0 0 0 0 0 0 0 0 0 0 0
1 1 1 1 1 1 1 1 1 0 0 0 0 0 0 0 0 0 0 0 0 0 0 0 0 0 0 0 0 0 0 0 0 0 0 0 0 0 0 0 0 0 0
1 1 1 1 1 1 1 1 1 0 0 0 0 0 0 0 0 0 0 0 0 0 0 0 0 0 0 0 0 0 0 0 0 0 0 0 1 0 0 0 0 0 0
1 1 1 1 1 1 1 1 1 0 0 0 0 0 0 0 0 0 0 0 0 0 0 0 0 0 0 0 0 0 0 0 0 0 0 0 1 1 1 1 0 0 0
1 1 1 1 1 1 1 1 0 0 0 0 0 0 0 0 0 0 0 0 0 0 0 0 0 0 0 0 0 0 0 0 0 0 0 0 1 1 1 0 0 0 0
1 1 1 1 1 1 1 1 0 0 0 0 0 0 0 0 0 0 0 0 0 0 0 0 0 0 0 0 0 0 0 0 0 0 0 0 0 0 0 0 0 0 0
1 1 1 1 1 1 1 1 1 0 0 0 0 0 0 0 0 0 0 0 0 0 0 0 0 0 0 0 0 0 0 0 0 0 0 0 0 0 0 0 0 0 0
1 1 1 1 1 1 1 1 1 1 1 0 0 0 0 0 0 0 0 0 0 0 0 0 0 0 0 0 0 0 0 0 0 0 0 0 0 0 0 0 0 0 0
1 1 1 1 1 1 1 1 1 1 1 1 0 0 0 0 0 0 0 0 0 0 0 0 0 0 0 0 0 0 0 0 0 0 0 0 0 0 0 0 0 0 0
1 1 2 2 2 2 1 1 1 1 1 1 1 1 0 0 0 0 0 0 0 0 0 0 0 0 0 0 0 0 0 0 0 0 0 0 0 0 0 0 0 0 0
1 2 2 2 2 2 2 1 1 1 1 1 1 1 1 0 0 0 0 0 0 0 0 0 0 0 0 0 0 0 0 0 0 0 0 0 0 0 0 0 0 0 0
2 2 2 2 2 2 2 2 2 1 1 1 1 1 1 0 0 0 0 0 0 0 0 0 0 0 0 0 0 0 0 0 0 0 0 0 0 0 0 0 0 0 0
2 2 2 2 2 2 2 2 2 1 1 1 1 1 1 0 0 0 0 0 0 0 0 0 0 0 0 0 0 0 0 0 0 0 0 0 0 0 0 0 0 0 0
2 2 2 2 2 2 2 2 2 1 1 1 1 1 1 0 0 0 0 0 0 0 0 0 0 0 0 0 0 0 0 0 0 0 0 0 0 0 0 0 0 0 0
2 2 2 2 2 1 1 1 1 1 1 1 1 1 1 0 0 0 0 0 0 0 0 0 0 0 0 0 0 0 0 0 0 0 0 0 0 0 0 0 0 0 0
1 1 1 1 1 1 1 1 1 1 1 1 1 1 0 0 0 0 0 0 0 0 0 0 0 0 0 0 0 0 0 0 0 0 0 0 0 0 0 0 0 0 0
1 1 1 1 1 1 1 1 1 1 1 1 1 0 0 0 0 0 0 0 0 0 0 0 0 0 0 0 0 0 0 0 0 0 0 0 0 0 0 0 0 0 0
1 1 1 0 0 0 0 0 1 1 1 0 0 0 0 0 0 0 0 0 0 0 0 0 0 0 0 0 0 0 0 0 0 0 0 0 0 0 0 0 0 0 0
Wind_Speed
10 10 10 10 10 11 12 12 12 11 9 7 7 6 6 6 5 5 6 7 7 7 6 5 6 5 5 5 5 4 5 4 3 3 3 3 4 4 4 4 4 5 5
10 10 11 12 12 12 12 12 13 12 11 8 6 5 4 5 5 5 5 7 7 7 7 7 6 6 5 6 5 5 4 4 4 3 2 3 4 4 4 4 4 4 4
11 11 11 12 11 12 12 11 12 12 12 10 6 5 4 4 5 6 6 7 7 8 7 7 7 5 6 6 6 6 6 4 4 4 3 3 2 3 3 3 3 3 3
10 11 11 11 11 11 11 11 11 11 11 10 9 9 8 7 7 6 6 6 7 8 8 8 7 6 6 5 7 7 5 5 5 4 4 4 3 2 3 4 4 4 3
10 10 11 10 10 10 10 10 10 10 10 10 10 9 8 7 6 6 6 7 7 8 8 8 7 7 7 7 7 5 7 5 6 4 4 4 3 5 3 3 3 3 3
9 9 9 9 9 9 9 9 9 9 10 10 10 10 10 8 8 7 6 6 6 6 9 9 7 7 7 7 7 7 8 6 5 5 5 5 4 5 4 4 4 3 2
9 10 10 10 10 10 10 9 9 9 9 9 9 10 10 9 9 8 7 7 6 6 8 8 8 7 7 7 7 7 7 7 7 7 6 5 5 4 4 3 3 3 2
9 10 10 10 9 10 10 10 9 9 9 9 8 8 9 8 6 8 7 7 6 6 6 7 8 8 8 8 7 6 7 6 7 8 7 5 5 4 5 4 4 4 3
9 9 9 9 9 10 9 9 9 8 8 8 7 7 7 7 7 6 7 6 6 6 7 7 7 7 7 7 6 6 7 6 7 7 7 7 5 5 5 5 5 5 4
9 9 9 9 9 9 8 8 8 8 8 7 7 6 7 7 7 6 6 6 6 6 7 7 7 7 7 7 7 6 6 7 6 5 6 6 5 5 5 5 5 4 4
10 9 9 9 9 9 9 8 7 7 7 7 6 6 6 6 6 6 6 6 6 6 7 7 7 7 7 7 6 7 6 7 6 6 7 7 5 4 4 4 4 4 3
9 9 10 9 9 9 8 8 7 7 7 6 6 6 5 6 6 6 6 6 6 6 6 6 6 7 7 7 7 7 6 6 7 7 6 6 5 5 5 4 4 3 3
10 10 10 9 9 9 8 8 8 7 7 7 6 6 6 6 5 5 5 5 5 5 6 6 6 6 6 6 6 6 6 6 6 6 6 6 6 6 5 5 4 4 4
10 10 10 9 9 8 8 8 7 7 7 6 6 5 5 5 5 5 5 5 5 5 5 5 5 5 5 5 5 5 5 5 4 4 4 5 5 6 5 4 5 4 4
10 10 10 9 9 9 9 8 7 6 6 6 6 5 5 5 4 4 4 4 4 4 4 4 4 4 4 3 4 4 4 4 4 3 3 3 2 1 1 2 4 5 4
9 10 10 10 11 10 10 9 8 7 7 6 6 5 5 5 4 4 4 4 3 3 3 3 3 3 1 2 1 2 3 3 3 3 2 2 4 5 5 4 3 3 5
9 9 9 9 10 10 10 9 9 8 7 6 6 6 6 5 5 4 4 4 3 3 3 2 2 2 2 3 3 2 2 2 2 3 3 2 3 6 6 7 7 5 4
8 8 8 9 9 9 10 9 9 8 8 7 6 6 6 5 5 4 4 3 3 3 2 2 2 2 3 4 3 3 3 2 2 2 3 3 4 4 6 6 6 5 4
5 6 7 8 9 9 10 10 9 9 8 7 6 6 5 6 5 5 5 4 3 3 3 2 3 3 3 4 4 3 3 3 3 2 2 3 4 6 7 8 7 7 6
4 5 6 8 8 8 9 10 9 8 7 7 6 5 5 5 5 5 4 4 4 3 3 3 2 3 3 3 3 3 3 4 4 3 3 4 5 6 6 7 8 8 7
5 6 6 6 6 7 8 8 8 7 6 6 5 5 5 5 5 4 4 4 4 4 4 4 3 3 3 4 3 1 2 4 4 4 3 4 7 6 4 4 5 7 8
6 6 6 6 5 6 7 7 6 5 6 6 5 5 4 4 4 4 4 4 4 5 4 4 4 3 3 3 4 3 2 1 4 3 4 5 8 7 6 5 8 9 7
6 6 7 7 5 5 5 6 5 4 5 6 5 4 4 3 4 4 4 4 4 4 4 4 3 3 3 4 6 5 5 4 4 4 8 9 10 9 8 9 9 7 6
5 5 6 6 5 5 5 5 4 4 5 5 5 4 4 4 3 2 3 3 4 4 4 4 4 4 4 4 4 5 6 7 6 6 9 10 8 6 8 8 6 4 4
4 5 5 5 5 4 5 4 4 4 4 4 4 4 4 4 3 2 1 1 1 1 2 3 4 4 4 3 4 4 5 5 6 8 6 6 6 6 6 5 5 5 5
5 5 5 5 4 4 4 3 2 3 4 4 4 3 3 3 3 3 3 7 5 4 3 3 1 3 4 7 6 5 6 7 8 7 6 6 6 6 6 6 6 5 5
Wind_Direction
183 177 181 185 187 185 185 187 187 182 183 187 195 197 205 212 214 213 210 210 213 205 215 222 193 211 204 212 205 199 197 207 202 212 201 200 198 192 193 209 201 189 192
177 176 181 184 191 189 189 188 190 188 190 192 196 201 205 212 211 213 212 215 213 212 208 219 216 207 207 214 218 212 225 207 198 222 214 208 190 199 197 191 195 196 189
182 179 185 188 190 190 191 192 192 192 195 193 192 194 195 212 212 210 208 211 214 218 225 216 227 218 220 210 215 213 219 225 213 222 237 237 211 182 173 193 188 191 197
185 182 185 187 190 190 188 191 189 193 194 194 200 202 205 208 213 214 210 207 214 222 222 222 223 224 228 217 221 213 222 226 229 210 234 266 304 250 184 182 180 184 200
184 183 185 184 186 185 183 185 188 191 193 198 204 209 219 220 218 215 216 220 217 221 225 222 220 221 229 226 234 222 231 225 231 229 219 223 227 244 239 213 189 179 187
175 175 176 173 175 178 179 180 183 190 193 198 205 211 222 223 224 221 220 217 216 216 221 222 218 221 228 224 225 226 225 237 237 244 241 228 224 225 225 223 211 195 182
169 169 173 174 174 176 177 177 180 187 192 199 205 211 220 222 224 224 222 222 219 214 215 220 217 221 224 228 225 222 236 229 228 233 239 243 240 235 231 224 228 208 185
167 169 171 172 174 175 175 177 180 184 191 198 204 209 215 221 222 222 225 220 223 223 215 219 220 223 225 228 222 229 226 227 228 236 242 248 245 237 235 230 227 218 205
164 164 166 169 170 174 176 177 178 183 190 195 196 203 210 219 218 218 220 219 219 218 211 219 223 226 225 229 227 235 231 226 229 234 226 235 238 236 242 235 233 234 227
167 165 165 167 168 169 171 174 177 182 186 190 196 198 206 210 211 212 209 211 217 220 212 216 222 223 225 227 229 231 228 228 229 237 242 238 243 235 237 235 233 233 235
169 166 165 164 165 166 169 172 174 179 183 187 189 195 199 201 204 207 206 207 214 216 217 216 220 223 226 226 225 231 228 228 228 228 225 226 244 242 240 235 234 236 231
166 165 164 164 167 168 169 172 176 180 181 181 183 191 192 194 199 201 205 204 206 213 214 216 219 223 225 222 222 226 225 226 229 229 226 225 218 218 235 233 227 218 212
169 168 169 171 171 170 172 173 178 179 177 177 183 184 188 187 189 190 195 197 200 208 212 213 216 221 223 222 226 229 227 228 231 232 227 224 221 221 220 221 215 205 190
173 176 174 174 171 171 171 175 176 177 177 178 180 183 188 185 185 184 186 190 198 207 210 215 218 217 216 219 224 228 229 228 231 233 233 231 225 222 216 208 199 190 179
176 179 179 172 172 172 172 174 172 173 176 180 180 184 182 180 181 180 182 187 197 203 205 209 209 214 217 219 218 219 216 213 214 219 223 222 191 162 196 202 182 178 180
181 179 179 175 177 176 174 171 171 169 174 179 177 175 176 173 172 172 171 176 185 191 188 196 201 204 216 92 113 214 211 207 204 205 200 170 145 123 112 105 107 153 178
185 182 178 175 174 176 172 171 169 168 172 174 173 172 176 175 173 174 174 177 179 176 177 178 188 184 126 105 126 156 195 194 193 189 180 171 135 129 128 117 108 92 80
185 179 175 171 169 169 168 167 165 169 171 172 174 175 176 174 171 172 169 171 173 173 171 165 168 158 121 113 125 137 162 147 143 155 156 147 142 136 135 125 113 100 82
177 169 170 165 160 163 164 163 164 167 170 172 173 173 177 176 175 176 173 173 173 171 166 154 153 152 129 115 132 151 136 128 124 121 126 138 138 121 130 132 127 117 102
134 143 151 150 153 157 161 164 165 166 171 170 171 173 176 175 177 175 173 168 167 166 158 137 134 142 140 123 144 162 150 141 138 126 120 107 125 133 146 146 141 136 131
125 133 136 140 144 150 157 162 161 164 161 159 161 164 168 171 168 163 165 165 166 162 157 144 138 134 124 126 121 161 169 158 151 145 139 121 117 122 125 138 134 133 133
121 124 123 121 126 143 152 152 150 145 145 149 152 152 156 161 155 156 158 161 164 162 159 151 143 127 115 105 116 110 109 131 146 142 132 121 126 124 122 119 117 126 132
111 113 118 117 116 129 142 137 133 141 147 142 143 145 149 157 161 164 163 166 176 182 174 169 165 153 139 122 114 114 104 96 113 105 104 116 125 124 116 117 131 146 143
110 113 114 114 109 108 108 118 132 146 150 148 152 158 161 162 154 165 179 185 188 189 182 180 180 170 159 153 152 149 137 126 122 121 116 117 118 116 116 134 147 147 130
96 99 102 108 110 111 111 125 136 150 153 154 163 168 168 163 152 139 60 259 166 216 210 196 184 180 178 159 159 166 159 154 146 143 142 141 142 143 147 148 140 140 144
105 102 98 98 100 102 102 104 121 148 158 167 174 175 170 168 170 155 121 52 53 71 75 64 97 121 111 127 132 131 128 131 150 157 154 158 162 165 164 159 156 159 158